Home > Time Zones > World Clock > Weather > U.S.A. > Hilo > Past weeks

Flag for U.S.A. Weather past 2 weeks in Hilo, Hawaii, U.S.A.

Now
73 °F

Rain. Fog.


Feels Like: 69 °F
Forecast: 69 / 79 °F
Wind: 9 mph from Northwest

Location: Hilo International Airport

Current Time: Jul 24, 2014 at 6:10:59 AM

Latest Report: Jul 24, 2014 at 5:53 AM


Visibility: 3 mi

Pressure: 30.04 "Hg

Humidity: 97%

Dew point: 72 °F

Location of HiloLocation

Historic Weather in Hilo — Graph

°F

Hilo temperature yesterday

Maximum temperature yesterday: 84 °F (at 11:53 AM)
Minimum temperature yesterday: 72 °F (at 11:15 PM)
Average temperature yesterday: 76 °F

Past Weeks' High & Low Weather Summary

 TemperatureHumidityPressure
High85 °F (Jul 21, 11:53 AM)100% (Jul 9, 6:40 AM)30.12 "Hg (Jul 9, 6:40 AM)
Low66 °F (Jul 9, 5:53 AM)60% (Jul 10, 12:53 PM)29.69 "Hg (Jul 17, 7:53 PM)
Average75 °F90%30.01 "Hg
* Reported Jul 9 4:53 AM — Jul 24 4:53 AM, Hilo, Weather by CustomWeather, © 2014

Note: Actual official high and low records may vary slightly from our data, if they occured in-between our weather recording intervals... More about our weather records

Advertising

Hilo weather history for previous 24 hours

 ConditionsComfort  
Time TempWeatherWind HumidityBarometerVisibility
4:53 AM
Jul 24
73 °FMostly cloudy.5 mph94%30.04 "Hg10 mi
4:03 AM73 °FMostly cloudy.5 mph89%30.04 "Hg10 mi
3:53 AM73 °FOvercast.5 mph90%30.03 "Hg10 mi
2:53 AM73 °FMostly cloudy.7 mph94%30.04 "Hg10 mi
2:04 AM73 °FLight rain. Overcast.5 mph94%30.06 "Hg10 mi
1:53 AM73 °FLight rain. Fog.No wind97%30.06 "Hg5 mi
1:34 AM73 °FLight rain. Fog.6 mph94%30.07 "Hg3 mi
1:15 AM73 °FHeavy rain. Fog.10 mph94%30.08 "Hg2 mi
12:53 AM73 °FMostly cloudy.6 mph94%30.07 "Hg10 mi
12:11 AM73 °FMostly cloudy.5 mph94%30.09 "Hg10 mi
11:53 PM
Jul 23
73 °FRain. Fog.3 mph94%30.09 "Hg5 mi
11:30 PM73 °FLight rain. Mostly cloudy.8 mph94%30.10 "Hg10 mi
11:15 PM72 °FMostly cloudy.8 mph100%30.10 "Hg10 mi
10:53 PM72 °FRain. Fog.7 mph93%30.10 "Hg3 mi
10:05 PM73 °FLow clouds.16 mph94%30.10 "Hg10 mi
9:53 PM73 °FMostly cloudy.12 mph94%30.09 "Hg10 mi
8:53 PM75 °FOvercast.16 mph90%30.07 "Hg10 mi
8:32 PM75 °FLight rain. Mostly cloudy.12 mph89%30.07 "Hg10 mi
8:01 PM77 °FLight rain. Overcast.13 mph88%30.07 "Hg10 mi
6:53 PM77 °FBroken clouds.7 mph85%30.05 "Hg10 mi
5:53 PM79 °FMore clouds than sun.6 mph77%30.03 "Hg10 mi
4:53 PM78 °FCloudy.6 mph82%30.01 "Hg10 mi
3:53 PM77 °FMostly cloudy.6 mph79%30.02 "Hg10 mi
2:53 PM78 °FMostly cloudy.12 mph84%30.04 "Hg10 mi
1:53 PM82 °FOvercast.9 mph60%30.04 "Hg10 mi
12:53 PM84 °FScattered clouds.13 mph67%30.05 "Hg10 mi
11:53 AM84 °FScattered clouds.10 mph67%30.06 "Hg10 mi
10:53 AM82 °FPartly sunny.10 mph70%30.07 "Hg10 mi
9:53 AM82 °FBroken clouds.9 mph70%30.07 "Hg10 mi
8:53 AM81 °FBroken clouds.6 mph74%30.06 "Hg10 mi
7:53 AM76 °FLight rain. Broken clouds.5 mph85%30.06 "Hg10 mi
6:53 AM74 °FLight rain. Broken clouds.7 mph91%30.04 "Hg10 mi
6:06 AM73 °FLight rain. Broken clouds.3 mph94%30.03 "Hg10 mi
Weather by CustomWeather, © 2014

See weather overviewHow to use our weather pages